Change the Weather History Date:

Friday, October 18, 2013

  Actual Average Record
Temperature  
Mean Temperature 42 °F -  
Max Temperature 51 °F 55 °F 87 °F (1950)
Min Temperature 33 °F 36 °F 16 °F (1972)
Degree Days  
Heating Degree Days 23    
Moisture  
Dew Point 34 °F    
Average Humidity 75    
Maximum Humidity 100    
Minimum Humidity 41    
Precipitation  
Precipitation 0.00 in - - ()
Sea Level Pressure  
Sea Level Pressure 29.91 in    
Wind  
Wind Speed 9 mph (WNW)    
Max Wind Speed 14 mph    
Max Gust Speed 22 mph    
Visibility 10 miles    
Events Rain    
Averages and records for this station are not official NWS values.
T = Trace of Precipitation, MM = Missing Value Source: NWS Daily Summary

Daily Weather History Graph

Daily Weather History Graph

Search for Another Location

Airport or City:

Trip Planner

Search our weather history database for the weather conditions in past years. The results will help you decide how hot, cold, wet, or windy it might be!

Date:

Astronomy

Oct. 18, 2013 Rise Set
Actual Time 7:32 AM CDT 6:22 PM CDT
Civil Twilight 7:02 AM CDT 6:52 PM CDT
Nautical Twilight 6:28 AM CDT 7:26 PM CDT
Astronomical Twilight 5:55 AM CDT 7:59 PM CDT
Moon 6:12 PM CDT (10/18) 7:08 AM CDT (10/18)
Length of Visible Light 11h 49m
Length of Day
10h 50m
Full, 100% of the Moon is Illuminated
Oct 18
Full
Oct 18
Full
Oct 26
Last Quarter
Nov 3
New
Nov 9
First Quarter

Hourly Weather History & Observations

Time (CDT) Temp. Windchill Dew Point Humidity Pressure Visibility Wind Dir Wind Speed Gust Speed Precip Events Conditions
12:11 AM 41.0 °F 33.5 °F 39.2 °F 93% 29.85 in 10.0 mi WNW 13.8 mph - N/A   Light Drizzle
12:30 AM 41.0 °F 33.9 °F 39.2 °F 93% 29.85 in 10.0 mi WNW 12.7 mph - N/A   Light Drizzle
12:51 AM 39.2 °F 32.5 °F 39.2 °F 100% 29.85 in 10.0 mi WNW 10.4 mph - N/A   Light Drizzle
1:11 AM 39.2 °F 31.2 °F 39.2 °F 100% 29.85 in 10.0 mi WNW 13.8 mph - N/A   Light Drizzle
1:31 AM 39.2 °F 32.5 °F 39.2 °F 100% 29.86 in 5.0 mi NW 10.4 mph - N/A   Drizzle
1:51 AM 39.2 °F 32.0 °F 39.2 °F 100% 29.86 in 7.0 mi NW 11.5 mph 17.3 mph N/A Rain Light Rain
2:11 AM 39.2 °F 31.6 °F 39.2 °F 100% 29.87 in 7.0 mi NW 12.7 mph 18.4 mph N/A Rain Light Rain
2:31 AM 39.2 °F 33.6 °F 37.4 °F 93% 29.87 in 10.0 mi NW 8.1 mph - N/A Rain Rain
2:50 AM 39.2 °F 33.0 °F 37.4 °F 93% 29.87 in 10.0 mi NNW 9.2 mph - N/A   Light Drizzle
3:11 AM 39.2 °F 33.6 °F 37.4 °F 93% 29.88 in 10.0 mi NW 8.1 mph - N/A   Light Drizzle
3:31 AM 39.2 °F 33.0 °F 37.4 °F 93% 29.88 in 10.0 mi NW 9.2 mph 17.3 mph N/A   Overcast
3:51 AM 39.2 °F 33.0 °F 37.4 °F 93% 29.88 in 10.0 mi NW 9.2 mph - N/A   Light Drizzle
4:11 AM 39.2 °F 32.0 °F 37.4 °F 93% 29.88 in 10.0 mi WNW 11.5 mph - N/A   Light Drizzle
4:30 AM 39.2 °F 32.5 °F 37.4 °F 93% 29.89 in 10.0 mi NW 10.4 mph - N/A   Overcast
4:51 AM 39.2 °F 32.5 °F 37.4 °F 93% 29.89 in 10.0 mi NW 10.4 mph - N/A   Light Drizzle
5:11 AM 39.2 °F 32.0 °F 37.4 °F 93% 29.89 in 10.0 mi NW 11.5 mph - N/A   Overcast
5:30 AM 39.2 °F 32.0 °F 37.4 °F 93% 29.90 in 10.0 mi NW 11.5 mph - N/A   Overcast
5:51 AM 39.2 °F 31.6 °F 35.6 °F 87% 29.91 in 10.0 mi NNW 12.7 mph 21.9 mph N/A   Overcast
6:11 AM 39.2 °F 33.6 °F 37.4 °F 93% 29.91 in 10.0 mi WNW 8.1 mph - N/A   Mostly Cloudy
6:31 AM 39.2 °F 33.0 °F 37.4 °F 93% 29.93 in 10.0 mi WNW 9.2 mph - N/A   Scattered Clouds
6:51 AM 39.2 °F 33.0 °F 37.4 °F 93% 29.93 in 10.0 mi WNW 9.2 mph - N/A   Mostly Cloudy
7:10 AM 37.4 °F 32.1 °F 35.6 °F 93% 29.94 in 10.0 mi West 6.9 mph - N/A   Scattered Clouds
7:31 AM 37.4 °F 32.1 °F 35.6 °F 93% 29.95 in 10.0 mi West 6.9 mph - N/A   Clear
7:51 AM 35.6 °F 30.7 °F 35.6 °F 100% 29.95 in 10.0 mi West 5.8 mph - N/A   Clear
8:11 AM 35.6 °F 31.7 °F 35.6 °F 100% 29.96 in 10.0 mi West 4.6 mph - N/A   Clear
8:31 AM 37.4 °F 32.8 °F 35.6 °F 93% 29.97 in 10.0 mi West 5.8 mph - N/A   Clear
8:50 AM 37.4 °F 32.8 °F 35.6 °F 93% 29.97 in 10.0 mi WNW 5.8 mph - N/A   Clear
9:11 AM 39.2 °F 35.0 °F 37.4 °F 93% 29.97 in 10.0 mi West 5.8 mph - N/A   Clear
9:30 AM 39.2 °F 34.2 °F 37.4 °F 93% 29.97 in 10.0 mi West 6.9 mph - N/A   Clear
9:51 AM 41.0 °F 36.4 °F 37.4 °F 87% 29.98 in 10.0 mi West 6.9 mph - N/A   Clear
10:11 AM 42.8 °F 38.0 °F 37.4 °F 81% 29.97 in 10.0 mi WNW 8.1 mph - N/A   Clear
10:31 AM 44.6 °F 40.2 °F 37.4 °F 76% 29.97 in 10.0 mi WNW 8.1 mph - N/A   Clear
10:51 AM 44.6 °F 39.2 °F 35.6 °F 71% 29.97 in 10.0 mi NW 10.4 mph - N/A   Clear
11:10 AM 46.4 °F 41.1 °F 35.6 °F 66% 29.97 in 10.0 mi NW 11.5 mph 16.1 mph N/A   Clear
11:31 AM 46.4 °F 41.9 °F 32.0 °F 57% 29.97 in 10.0 mi NW 9.2 mph 16.1 mph N/A   Scattered Clouds
11:51 AM 48.2 °F - 32.0 °F 54% 29.96 in 10.0 mi NW 10.4 mph 17.3 mph N/A   Scattered Clouds
12:10 PM 48.2 °F - 30.2 °F 50% 29.96 in 10.0 mi NW 10.4 mph - N/A   Scattered Clouds
12:31 PM 48.2 °F - 28.4 °F 46% 29.97 in 10.0 mi WNW 9.2 mph - N/A   Scattered Clouds
12:50 PM 48.2 °F - 30.2 °F 50% 29.97 in 10.0 mi West 6.9 mph - N/A   Scattered Clouds
1:11 PM 50.0 °F - 28.4 °F 43% 29.96 in 10.0 mi NW 11.5 mph 16.1 mph N/A   Scattered Clouds
1:30 PM 48.2 °F - 30.2 °F 50% 29.95 in 10.0 mi NW 12.7 mph - N/A   Scattered Clouds
1:51 PM 48.2 °F - 30.2 °F 50% 29.93 in 10.0 mi NW 9.2 mph 16.1 mph N/A   Clear
2:11 PM 50.0 °F - 28.4 °F 43% 29.92 in 10.0 mi WNW 9.2 mph - N/A   Clear
2:31 PM 50.0 °F - 28.4 °F 43% 29.91 in 10.0 mi NW 10.4 mph - N/A   Clear
2:51 PM 50.0 °F - 28.4 °F 43% 29.92 in 10.0 mi West 6.9 mph - N/A   Clear
3:10 PM 50.0 °F - 28.4 °F 43% 29.93 in 10.0 mi NNW 5.8 mph - N/A   Scattered Clouds
3:31 PM 51.8 °F - 28.4 °F 41% 29.94 in 10.0 mi WSW 10.4 mph - N/A   Mostly Cloudy
3:50 PM 50.0 °F - 28.4 °F 43% 29.93 in 10.0 mi WSW 6.9 mph - N/A   Scattered Clouds
4:11 PM 48.2 °F - 28.4 °F 46% 29.92 in 10.0 mi West 5.8 mph - N/A   Scattered Clouds
4:31 PM 48.2 °F - 30.2 °F 50% 29.91 in 10.0 mi West 6.9 mph - N/A   Clear
4:50 PM 50.0 °F - 30.2 °F 47% 29.91 in 10.0 mi West 4.6 mph - N/A   Clear
5:11 PM 48.2 °F - 30.2 °F 50% 29.91 in 10.0 mi West 8.1 mph - N/A   Scattered Clouds
5:30 PM 46.4 °F 42.9 °F 30.2 °F 53% 29.92 in 10.0 mi WNW 6.9 mph - N/A   Scattered Clouds
5:51 PM 44.6 °F 43.1 °F 30.2 °F 57% 29.91 in 10.0 mi West 3.5 mph - N/A   Clear
6:10 PM 44.6 °F - 30.2 °F 57% 29.91 in 10.0 mi Calm Calm - N/A   Clear
6:31 PM 42.8 °F - 32.0 °F 66% 29.91 in 10.0 mi Calm Calm - N/A   Clear
6:51 PM 42.8 °F - 30.2 °F 61% 29.91 in 10.0 mi Calm Calm - N/A   Clear
7:11 PM 39.2 °F - 32.0 °F 75% 29.91 in 10.0 mi Calm Calm - N/A   Clear
7:31 PM 39.2 °F - 30.2 °F 70% 29.91 in 10.0 mi Calm Calm - N/A   Clear
7:50 PM 39.2 °F - 30.2 °F 70% 29.90 in 10.0 mi Calm Calm - N/A   Clear
8:11 PM 39.2 °F - 30.2 °F 70% 29.90 in 10.0 mi Calm Calm - N/A   Clear
8:30 PM 39.2 °F - 30.2 °F 70% 29.89 in 10.0 mi Calm Calm - N/A   Clear
8:51 PM 39.2 °F - 30.2 °F 70% 29.89 in 10.0 mi Calm Calm - N/A   Clear
9:10 PM 37.4 °F - 32.0 °F 81% 29.88 in 10.0 mi Calm Calm - N/A   Clear
9:31 PM 37.4 °F - 30.2 °F 75% 29.88 in 10.0 mi Calm Calm - N/A   Clear
9:51 PM 33.8 °F - 30.2 °F 87% 29.88 in 10.0 mi Calm Calm - N/A   Clear
10:10 PM 33.8 °F - 30.2 °F 87% 29.87 in 10.0 mi Calm Calm - N/A   Clear
10:31 PM 35.6 °F - 30.2 °F 81% 29.86 in 10.0 mi Calm Calm - N/A   Clear
10:50 PM 37.4 °F 32.8 °F 30.2 °F 75% 29.87 in 10.0 mi WSW 5.8 mph - N/A   Mostly Cloudy
11:11 PM 39.2 °F 33.6 °F 32.0 °F 75% 29.86 in 10.0 mi West 8.1 mph - N/A   Mostly Cloudy
11:31 PM 39.2 °F 33.0 °F 33.8 °F 81% 29.86 in 10.0 mi West 9.2 mph - N/A   Scattered Clouds
11:50 PM 39.2 °F 35.0 °F 33.8 °F 81% 29.85 in 10.0 mi West 5.8 mph - N/A   Scattered Clouds